This is the latest recevied weather packets stored in our database for station/object KO4RMV-3. If no packets are shown the sender has not sent any weather packets the latest 10 day(s).
| Time | Temp. | Humidity | Pressure | Rain* | Wind** | Luminosity | Snow |
|---|---|---|---|---|---|---|---|
| 1777764606 | 14.44° C | 48% | - | 0 mm | - | - | - |
| 1777763706 | 14.44° C | 45% | - | 0 mm | - | - | - |
| 1777762805 | 15° C | 44% | - | 0 mm | - | - | - |
| 1777761905 | 15.56° C | 43% | - | 0 mm | - | - | - |
| 1777761005 | 15.56° C | 44% | - | 0 mm | - | - | - |
| 1777760105 | 15.56° C | 43% | - | 0 mm | - | - | - |
| 1777759205 | 15.56° C | 43% | - | 0 mm | - | - | - |
| 1777758305 | 15.56° C | 43% | - | 0 mm | - | - | - |
| 1777757405 | 16.11° C | 43% | - | 0 mm | - | - | - |
| 1777756505 | 16.67° C | 42% | - | 0 mm | - | - | - |
| 1777755605 | 16.67° C | 42% | - | 0 mm | - | - | - |
| 1777754705 | 16.67° C | 40% | - | 0 mm | - | - | - |
| 1777753805 | 17.22° C | 42% | - | 0 mm | - | - | - |
| 1777752905 | 16.11° C | 43% | - | 0 mm | - | - | - |
| 1777752006 | 16.11° C | 44% | - | 0 mm | - | - | - |
| 1777751106 | 16.11° C | 41% | - | 0 mm | - | - | - |
| 1777750206 | 16.11° C | 43% | - | 0 mm | - | - | - |
| 1777749306 | 15.56° C | 42% | - | 0 mm | - | - | - |
| 1777748406 | 15.56° C | 44% | - | 0 mm | - | - | - |
| 1777747506 | 15.56° C | 43% | - | 0 mm | - | - | - |
| 1777746606 | 15.56° C | 44% | - | 0 mm | - | - | - |
| 1777745705 | 15.56° C | 45% | - | 0 mm | - | - | - |
| 1777744805 | 15.56° C | 45% | - | 0 mm | - | - | - |
| 1777743905 | 14.44° C | 46% | - | 0 mm | - | - | - |
| 1777743005 | 15° C | 45% | - | 0 mm | - | - | - |
* Rain latest hour (hover to see other rain measurements)
** Current wind speed in m/s (hover to see current wind gust speed)